Погода Куминская

Погода Куминская : погода сейчас, прогноз погоды и архив. Всё, что Вы хотите узнать о погоде Куминская!

Поиск расширенной информации на нашем сайте:

Полезная информация: погода в петропавловске-камчатском

Другие новости

Новости СМИ2

Главная страница сайта

Новости сайта

03.07.2017

Напоминаем, что на нашем специализированном сайте Метеоцентр.Азия вы можете получить высокодетализированные автоматические прогнозы погоды по пунктам России, СНГ и мира в авиационном формате (включающие направление и скорость ветра, видимость, явления погоды, количество и форму облачности, нижнюю и верхнюю границу облачности).

Рекомендуем: сауны города екатеринбурга

Погода Куминская - сегодня

Время (UTC), дата Ветер
(°,м/с) 
Видим.   Явления Облачность Т
(°С)
Тd
(°С)
f(%) Тe
(°С)
Pmin
(гПа)
dP
(гПа)
Po
(мм)
O2
(г/м3)
Тmin Tmax R s Состояние
почвы
12 12.10.18 290 (З) н/о    н/о 
+1.5 -4.4 65 +2  1004.6  0.5  746  299           
15 12.10.18 230 (ЮЗ) 50000 м    ясно 
-2.9 -4.3 90 -2  1005.1  0.3  746  304    +3.7  0.0     
18 12.10.18 270 (З) 50000 м    6/0 средняя 
[Ac trans]
-1.9 -4 86 -1  1004.1  0.3  745  303           
21 12.10.18 260 (З) 50000 м    10/10 600 м 
[Sc]
-1 -2.1 92 1003.5  0.3  745  302           
00 13.10.18 250 (З) 50000 м    8/4 600 м средняя 
[Sc|Ac trans]
-1.7 -2.8 92 -1  1003.3  -0.3  745  302           
03 13.10.18 250 (З) 10 км    9/8 600 м верхняя 
[Sc|Ci fib]
-1.6 -2.5 94 -1  1003  -0.2  745  302  -3.2         
06 13.10.18 300 (СЗ) н/о    н/о 
+2.7 -1.7 73 +2  1002.8  0.1  745  297           
09 13.10.18 300 (СЗ) 10 км  слаб. крупа{ливн. осадки}  10/10 300 м кучево-дожд. 
[Cb cap]
+2.1 -1.1 79 +3  1003.3  0.5  745  298           
12 13.10.18 тихо ()   н/о    н/о 
+0.5 +0 96 +1  1004.4  746  300           
15 13.10.18 260 (З) 50000 м  {ливн. осадки}  10/10 300 м кучево-дожд. 
[Cb cap]
+0.6 -0.5 92 +1  1004.5  0.1  746  300    +4.6     
18 13.10.18 260 (З) 50000 м    ясно 
-1.1 -2 94 -1  1004.3  -0.2  746  302           
21 13.10.18 280 (З) 50000 м    8/4 600 м средняя 
[Sc|Ac As]
-1.5 -2.3 94 -1  1004.6  0.3  746  302           
00 14.10.18 260 (З) 50000 м  {снег}  4/4 600 м 
[Sc]
-1.3 -2.1 94 -1  1004.7  0.1  746  302           
03 14.10.18 270 (З) 10 км  слаб. снег  10/10 600 м 
[Sc]
-1.1 -1.6 96 -1  1005.2  0.5  746  302  -2    0.3  сухой снег
50-90% 
06 14.10.18 300 (СЗ) н/о    н/о 
+0.3 -0.8 92 +1  1006.6  1.4  747  301           
09 14.10.18 290 (З) 10 км  слаб. ливневой снег  10/10 300 м кучево-дожд. 
[Cb cap]
+1.6 +0 89 +2  1008.1  1.6  749  300           
12 14.10.18 360 (С) н/о    н/о 
+1.6 +0 89 +2  1008.1  1.6  750  300           
15 14.10.18 340 (С) 50000 м  {ливн. осадки}  8/6 300 м кучево-дожд., средняя, верхняя 
[Cb cap|Ac trans|Ci fib]
-1.2 -2.3 92 -1  1012.8  2.3  752  305    +1.9     
18 14.10.18 360 (С) 50000 м    10/0 средняя 
[Ac und]
-1.4 -3.7 84 -1  1014.1  1.2  753  305           
21 14.10.18 360 (С) 50000 м    10/10 300 м кучево-дожд. 
[Cb cap]
-1.5 -3.3 88 -1  1015.9  1.8  754  306           
00 15.10.18 350 (С) 9000 м  слаб. ливневой снег  10/10 300 м кучево-дожд. 
[Cb cap]
-1.5 -2.5 93 -1  1017.5  1.6  755  306           
03 15.10.18 тихо ()   10 км  {ливн. осадки}  10/6 300 м кучево-дожд., средняя 
[Cb cap|Ac und]
-1.6 -2.7 92 -2  1018.7  1.1  756  307  -1.7    0.0  мокрый или
старый снег
10-40% 
06 15.10.18 тихо ()   н/о    н/о 
-0.7 -2.5 88 -1  1020  1.3  757  306           
09 15.10.18 310 (СЗ) 10 км    10/10 300 м кучево-дожд. 
[Cb cap]
+0.8 -3.5 73 +1  1020.5  0.6  758  305           
12 15.10.18 300 (СЗ) н/о    н/о 
+0.1 -4.3 72 +1  1021.6  758  306           
Время (UTC), дата Ветер
(°,м/с) 
Видим.   Явления Облачность Т
(°С)
Тd
(°С)
f(%) Тe
(°С)
Pmin
(гПа)
dP
(гПа)
Po
(мм)
O2
(г/м3)
Тmin Tmax R s Состояние
почвы

Для получения пояснительной информации подведите курсор к названию столбца.

ПОГОДА Куминская - архив

Всё, что Вы хотите узнать о погоде Куминская - удобно и подробно!

Выберите нужную дату (начиная с 1 января 2015* года) и нажмите кнопку "Найти".
Будут отображены архивные сводки погоды по пункту Куминская, начиная с указанной даты.


Отображать данные в формате CSV (для использования в таблицах Excel)


Внимание! Наш архив погоды предназначен исключительно для личного некоммерческого использования в познавательных целях. Если Вам необходимы официальные справки о состоянии погоды (для производственных, юридических, коммерческих и т.п. целей), обращайтесь в органы Росгидромета.

*Примечание: данная дата относится к архиву по метеостанциям СССР (Россия, СНГ, Балтия).
Архив по метеостанциям Зарубежной Европы и Азии (кроме Китая) хранится 10 дней, по другим регионам земного шара (Китай, Африка, Америка, Австралия, Океания) - 1 день.

Куминская - район местоположения метеостанции


Название, широта, долгота, высота метеостанции:
Куминская 58.8°ш. 66°д. 64 м над ур. моря [Российская Федерация]

Дополнительная информация

В oтличие oт бoльшинства пoгoдных сайтoв мы публикуем пoдрoбную метеoинфoрмацию в детальнoм прoфессиoнальнoм фoрмате.

Характеристики температуры и влажнoсти вoздуха измеряются на высoте 2 м в тени вдали oт зданий и деревьев.
Скoрoсть ветра измеряется на высoте 10 м (на урoвне рoста челoвека скoрoсть ветра ниже в 1.5-2 раза). Если метеoстанция нахoдится в гoрoде или в лесу, тo скoрoсть ветра занижена на 2-4 м/с пo сравнению с oткрытым местoм. Скoрoсть ветра над акватoриями крупных рек и oзёр, а также на вершинах хoлмoв на 2-5 м/с выше, чем в oбычных услoвиях.
Атмoсфернoе давление в разных тoчках местнoсти мoжет значительнo oтличаться oт давления на метеoстанции, в зависимoсти oт услoвий рельефа (при пoдъёме на 10 м давление пoнижается примернo на 1 мм рт.ст.).